Location: Hastringsfeld
(50.9620°N, 10.4787°E)
Time: 11:47:34
(UTC+00:00)

ATLAS 2AS CENTAUR R/B - Pass Details

Date: 26 September 2023
Orbit: 1000 x 1211 km, 63.7° (Epoch: 02 December)

Event Time Altitude Azimuth Distance (km) Brightness Sun altitude
Exits shadow 01:45:48 28° 150° (SSE) 2,062 4.0 -30.3°
Maximum altitude 01:48:13 34° 116° (ESE) 1,825 4.0 -30.0°
Drops below altitude 10° 01:54:37 10° 54° (NE) 3,041 6.0 -29.2°
Sets 01:57:30 0° 46° (NE) 3,973 6.9 -28.9°
